Alexandroupolis, Greece

7:09 AM EET on February 25, 2017 (GMT +0200)
Dimokritos

Weather History for LGAL - November, 2013

Change the Weather History Date:

Sunday, November 3, 2013

  Actual Average Record
Temperature  
Mean Temperature 55 °F -  
Max Temperature 66 °F 58 °F 77 °F (2003)
Min Temperature 44 °F 43 °F 35 °F (2006)
Degree Days  
Heating Degree Days 10    
Growing Degree Days 5 (Base 50)    
Moisture  
Dew Point 51 °F    
Average Humidity 86    
Maximum Humidity 94    
Minimum Humidity 71    
Precipitation  
Precipitation 0.00 in 0.10 in - ()
Sea Level Pressure  
Sea Level Pressure 30.07 in    
Wind  
Wind Speed 3 mph ()    
Max Wind Speed 12 mph    
Max Gust Speed -    
Visibility 4.6 miles    
Events      
Averages and records for this station are not official NWS values.
T = Trace of Precipitation, MM = Missing Value Source: Averaged Metar Reports

Daily Weather History Graph

Daily Weather History Graph

Search for Another Location

Airport or City:

Trip Planner

Search our weather history database for the weather conditions in past years. The results will help you decide how hot, cold, wet, or windy it might be!

Date:

Astronomy

Nov. 03, 2013 Rise Set
Actual Time 6:49 AM EET 5:10 PM EET
Civil Twilight 6:20 AM EET 5:38 PM EET
Nautical Twilight 5:48 AM EET 6:11 PM EET
Astronomical Twilight 5:16 AM EET 6:43 PM EET
Moon 6:31 AM EET (11/3) 5:10 PM EET (11/3)
Length of Visible Light 11h 18m
Length of Day
10h 20m
Waning Crescent, 0% of the Moon is Illuminated
Nov 3
Waning Crescent
Nov 3
New
Nov 10
First Quarter
Nov 17
Full
Nov 25
Last Quarter

Hourly Weather History & Observations

Time (EET) Temp. Windchill Dew Point Humidity Pressure Visibility Wind Dir Wind Speed Gust Speed Precip Events Conditions
12:20 AM 50.0 °F - 46.4 °F 87% 30.12 in 4.3 mi Calm Calm - N/A   Partly Cloudy
12:50 AM 48.2 °F - 44.6 °F 87% 30.09 in 5.0 mi Calm Calm - N/A   Unknown
1:20 AM 48.2 °F - 44.6 °F 87% 30.09 in 5.0 mi Calm Calm - N/A   Unknown
1:50 AM 46.4 °F - 42.8 °F 87% 30.09 in 5.0 mi Calm Calm - N/A   Partly Cloudy
2:00 AM 46 °F - 43 °F 87% 30.12 in 5 mi Calm Calm - -   Mist
2:20 AM 46.4 °F - 42.8 °F 87% 30.09 in 5.0 mi Calm Calm - N/A   Partly Cloudy
2:50 AM 46.4 °F - 42.8 °F 87% 30.09 in 5.0 mi Calm Calm - N/A   Partly Cloudy
3:20 AM 46.4 °F - 42.8 °F 87% 30.09 in 5.0 mi Calm Calm - N/A   Partly Cloudy
3:50 AM 46.4 °F 45.2 °F 42.8 °F 87% 30.09 in 5.0 mi East 3.5 mph - N/A   Partly Cloudy
4:50 AM 44.6 °F - 42.8 °F 93% 30.09 in 5.0 mi Calm Calm - N/A   Partly Cloudy
5:50 AM 44.6 °F - 41.0 °F 87% 30.09 in 5.0 mi Calm Calm - N/A   Partly Cloudy
6:20 AM 44.6 °F - 41.0 °F 87% 30.09 in 5.0 mi Calm Calm - N/A   Partly Cloudy
6:50 AM 46.4 °F - 41.0 °F 81% 30.09 in 4.3 mi Calm Calm - N/A   Scattered Clouds
7:20 AM 46.4 °F - 42.8 °F 87% 30.09 in 4.3 mi Calm Calm - N/A   Scattered Clouds
7:50 AM 44.6 °F - 41.0 °F 87% 30.09 in 3.7 mi Calm Calm - N/A   Scattered Clouds
8:00 AM 44 °F - 42 °F 89% 30.11 in 4 mi Calm Calm - -   Mist
8:20 AM 44.6 °F - 41.0 °F 87% 30.09 in 3.7 mi Calm Calm - N/A   Scattered Clouds
8:50 AM 46.4 °F - 44.6 °F 93% 30.09 in 3.7 mi Calm Calm - N/A   Scattered Clouds
9:20 AM 48.2 °F - 44.6 °F 87% 30.09 in 3.7 mi Calm Calm - N/A   Scattered Clouds
9:50 AM 50.0 °F - 46.4 °F 87% 30.09 in 3.7 mi Calm Calm - N/A   Scattered Clouds
10:20 AM 51.8 °F - 48.2 °F 88% 30.09 in 3.7 mi Calm Calm - N/A   Scattered Clouds
10:50 AM 57.2 °F - 53.6 °F 88% 30.09 in 3.7 mi Calm Calm - N/A   Scattered Clouds
11:20 AM 59.0 °F - 55.4 °F 88% 30.09 in 3.7 mi Calm Calm - N/A   Scattered Clouds
11:50 AM 59.0 °F - 57.2 °F 94% 30.09 in 3.7 mi SSW 6.9 mph - N/A   Scattered Clouds
12:20 PM 62.6 °F - 59.0 °F 88% 30.09 in 4.3 mi SSW 6.9 mph - N/A   Scattered Clouds
12:50 PM 64.4 °F - 60.8 °F 88% 30.06 in 5.0 mi SW 10.4 mph - N/A   Scattered Clouds
1:20 PM 64.4 °F - 60.8 °F 88% 30.06 in 5.0 mi SW 10.4 mph - N/A   Scattered Clouds
1:50 PM 64.4 °F - 57.2 °F 77% 30.04 in 5.0 mi SW 11.5 mph - N/A   Scattered Clouds
2:00 PM 65 °F - 58 °F 71% 30.05 in 5 mi SW 11.5 mph - -   Mist
2:20 PM 64.4 °F - 57.2 °F 77% 30.04 in 5.0 mi SW 11.5 mph - N/A   Scattered Clouds
2:50 PM 64.4 °F - 57.2 °F 77% 30.04 in 5.6 mi SW 10.4 mph - N/A   Scattered Clouds
3:50 PM 66.2 °F - 59.0 °F 78% 30.04 in 5.0 mi West 8.1 mph - N/A   Scattered Clouds
4:20 PM 64.4 °F - 57.2 °F 77% 30.04 in 5.0 mi West 8.1 mph - N/A   Scattered Clouds
4:50 PM 64.4 °F - 55.4 °F 73% 30.04 in 5.0 mi West 8.1 mph - N/A   Scattered Clouds
5:20 PM 62.6 °F - 57.2 °F 82% 30.04 in 4.3 mi West 5.8 mph - N/A   Partly Cloudy
5:50 PM 60.8 °F - 57.2 °F 88% 30.04 in 4.3 mi West 5.8 mph - N/A   Partly Cloudy
6:20 PM 59.0 °F - 55.4 °F 88% 30.04 in 4.3 mi West 4.6 mph - N/A   Partly Cloudy
6:50 PM 59.0 °F - 55.4 °F 88% 30.04 in 4.3 mi WNW 4.6 mph - N/A   Partly Cloudy
7:20 PM 57.2 °F - 53.6 °F 88% 30.04 in 4.3 mi Variable 2.3 mph - N/A   Scattered Clouds
7:50 PM 60.8 °F - 55.4 °F 82% 30.04 in 4.3 mi Variable 3.5 mph - N/A   Scattered Clouds
8:00 PM 61 °F - 55 °F 75% 30.04 in 4 mi 3.5 mph - -   Mist
8:20 PM 60.8 °F - 55.4 °F 82% 30.04 in 5.0 mi West 4.6 mph - N/A   Mostly Cloudy
8:50 PM 60.8 °F - 55.4 °F 82% 30.04 in 5.0 mi West 5.8 mph - N/A   Mostly Cloudy
9:20 PM 59.0 °F - 55.4 °F 88% 30.04 in 5.0 mi WSW 10.4 mph - N/A   Mostly Cloudy
9:50 PM 59.0 °F - 55.4 °F 88% 30.04 in 5.0 mi WSW 9.2 mph - N/A   Mostly Cloudy
10:20 PM 59.0 °F - 55.4 °F 88% 30.04 in 5.0 mi WSW 9.2 mph - N/A   Mostly Cloudy
10:50 PM 59.0 °F - 57.2 °F 94% 30.04 in 5.0 mi WSW 10.4 mph - N/A   Mostly Cloudy
11:20 PM 59.0 °F - 57.2 °F 94% 30.04 in 5.0 mi WSW 10.4 mph - N/A   Mostly Cloudy
11:50 PM 59.0 °F - 57.2 °F 94% 30.04 in 5.0 mi WSW 9.2 mph - N/A   Mostly Cloudy